This is the latest recevied weather packets stored in our database for station/object K4XP. If no packets are shown the sender has not sent any weather packets the latest 10 day(s).
| Time | Temp. | Humidity | Pressure | Rain* | Wind** | Luminosity | Snow |
|---|---|---|---|---|---|---|---|
| 1777930224 | 23.89° C | 35% | 1013.5 hPa | 0 mm | - | - | - |
| 1777929919 | 24.44° C | 33% | 1013.6 hPa | 0 mm | - | - | - |
| 1777929619 | 24.44° C | 34% | 1013.6 hPa | 0 mm | - | - | - |
| 1777929316 | 24.44° C | 35% | 1013.6 hPa | 0 mm | - | - | - |
| 1777929012 | 24.44° C | 33% | 1013.6 hPa | 0 mm | - | - | - |
| 1777928726 | 24.44° C | 32% | 1013.7 hPa | 0 mm | - | - | - |
| 1777928423 | 25° C | 31% | 1013.8 hPa | 0 mm | - | - | - |
| 1777928118 | 25° C | 30% | 1013.7 hPa | 0 mm | - | - | - |
| 1777927814 | 25° C | 32% | 1013.8 hPa | 0 mm | - | - | - |
| 1777927515 | 25° C | 33% | 1013.8 hPa | 0 mm | - | - | - |
| 1777927211 | 24.44° C | 33% | 1013.9 hPa | 0 mm | - | - | - |
| 1777926927 | 24.44° C | 32% | 1013.9 hPa | 0 mm | - | - | - |
| 1777926624 | 24.44° C | 30% | 1014 hPa | 0 mm | - | - | - |
| 1777926319 | 24.44° C | 31% | 1013.9 hPa | 0 mm | - | - | - |
| 1777926015 | 25° C | 30% | 1014 hPa | 0 mm | - | - | - |
| 1777925711 | 25° C | 28% | 1014.1 hPa | 0 mm | - | - | - |
| 1777925410 | 25° C | 31% | 1014 hPa | 0 mm | - | - | - |
| 1777925127 | 25° C | 31% | 1014.1 hPa | 0 mm | - | - | - |
| 1777924822 | 25° C | 32% | 1014.2 hPa | 0 mm | - | - | - |
| 1777924518 | 25° C | 30% | 1014.3 hPa | 0 mm | - | - | - |
| 1777924213 | 25° C | 30% | 1014.3 hPa | 0 mm | - | - | - |
| 1777923930 | 24.44° C | 29% | 1014.5 hPa | 0 mm | - | - | - |
| 1777923626 | 24.44° C | 29% | 1014.5 hPa | 0 mm | - | - | - |
| 1777923323 | 25° C | 30% | 1014.5 hPa | 0 mm | - | - | - |
| 1777923025 | 24.44° C | 32% | 1014.6 hPa | 0 mm | - | - | - |
* Rain latest hour (hover to see other rain measurements)
** Current wind speed in m/s (hover to see current wind gust speed)